McCall, ID

8:29 AM MDT on June 22, 2017 (GMT -0600)
McCall

Weather History for KMYL - October, 2013

Change the Weather History Date:

Wednesday, October 9, 2013

  Actual Average Record
Temperature  
Mean Temperature 39 °F 42 °F  
Max Temperature 52 °F 58 °F 82 °F (1996)
Min Temperature 26 °F 26 °F 9 °F (1985)
Degree Days  
Heating Degree Days 26 23  
Month to date heating degree days 218 195  
Since 1 July heating degree days 567 960  
Cooling Degree Days 0 0  
Month to date cooling degree days 0 0  
Year to date cooling degree days 186 25  
Moisture  
Dew Point 30 °F    
Average Humidity 76    
Maximum Humidity 100    
Minimum Humidity 52    
Precipitation  
Precipitation 0.00 in 0.03 in 1.11 in (1997)
Month to date precipitation 0.17 0.29  
Year to date precipitation 15.78 14.21  
Sea Level Pressure  
Sea Level Pressure 29.89 in    
Wind  
Wind Speed 4 mph (WNW)    
Max Wind Speed 14 mph    
Max Gust Speed 18 mph    
Visibility 6 miles    
Events Fog    
T = Trace of Precipitation, MM = Missing Value Source: NWS Daily Summary

Daily Weather History Graph

Daily Weather History Graph

Search for Another Location

Airport or City:

Trip Planner

Search our weather history database for the weather conditions in past years. The results will help you decide how hot, cold, wet, or windy it might be!

Date:

Astronomy

Oct. 09, 2013 Rise Set
Actual Time 7:52 AM MDT 7:09 PM MDT
Civil Twilight 7:23 AM MDT 7:38 PM MDT
Nautical Twilight 6:49 AM MDT 8:12 PM MDT
Astronomical Twilight 6:15 AM MDT 8:46 PM MDT
Moon 1:02 PM MDT (10/9) 10:38 PM MDT (10/9)
Length of Visible Light 12h 15m
Length of Day
11h 16m
Waxing Crescent, 26% of the Moon is Illuminated
Oct 9
Waxing Crescent
Oct 11
First Quarter
Oct 18
Full
Oct 26
Last Quarter
Nov 3
New

Hourly Weather History & Observations

Time (MDT) Temp. Windchill Dew Point Humidity Pressure Visibility Wind Dir Wind Speed Gust Speed Precip Events Conditions
12:51 AM 32.0 °F - 30.0 °F 92% 29.91 in 10.0 mi Calm Calm - N/A   Overcast
1:12 AM 30.2 °F - 30.2 °F 100% 29.88 in 6.0 mi Calm Calm - N/A   Overcast
1:51 AM 32.0 °F - 30.0 °F 92% 29.91 in 10.0 mi Calm Calm - 0.00 in   Mostly Cloudy
2:26 AM 30.2 °F - 30.2 °F 100% 29.88 in 1.8 mi Calm Calm - N/A   Mostly Cloudy
2:43 AM 32.0 °F - 30.2 °F 93% 29.88 in 3.0 mi Calm Calm - N/A   Overcast
2:51 AM 30.9 °F - 28.9 °F 92% 29.91 in 6.0 mi Calm Calm - N/A   Overcast
3:33 AM 30.2 °F - 30.2 °F 100% 29.87 in 1.8 mi Calm Calm - N/A   Partly Cloudy
3:39 AM 30.2 °F - 28.4 °F 93% 29.87 in 0.8 mi Calm Calm - N/A   Partly Cloudy
3:43 AM 30.2 °F - 28.4 °F 93% 29.87 in 1.2 mi Calm Calm - N/A   Clear
3:49 AM 30.2 °F - 28.4 °F 93% 29.87 in 4.0 mi Calm Calm - N/A   Clear
3:51 AM 32.0 °F - 28.9 °F 88% 29.91 in 7.0 mi Calm Calm - N/A   Clear
4:51 AM 30.0 °F - 27.0 °F 88% 29.91 in 10.0 mi Calm Calm - N/A   Clear
5:51 AM 30.0 °F - 27.0 °F 88% 29.93 in 10.0 mi Calm Calm - N/A   Clear
6:37 AM 26.6 °F 22.6 °F 24.8 °F 93% 29.89 in 2.5 mi WSW 3.5 mph - N/A   Partly Cloudy
6:39 AM 28.4 °F - 24.8 °F 86% 29.89 in 1.0 mi Calm Calm - N/A   Mist
6:45 AM 28.4 °F - 26.6 °F 93% 29.89 in 0.5 mi Calm Calm - N/A Fog Light Freezing Fog
6:51 AM 28.0 °F - 26.1 °F 92% 29.95 in 1.2 mi Calm Calm - N/A   Mostly Cloudy
7:02 AM 28.4 °F - 24.8 °F 86% 29.89 in 2.0 mi Calm Calm - N/A   Overcast
7:07 AM 28.4 °F - 26.6 °F 93% 29.88 in 1.0 mi Calm Calm - N/A   Mist
7:13 AM 28.4 °F - 26.6 °F 93% 29.88 in 0.5 mi Calm Calm - N/A Fog Light Freezing Fog
7:34 AM 26.6 °F - 24.8 °F 93% 29.89 in 1.2 mi Calm Calm - N/A   Mostly Cloudy
7:39 AM 26.6 °F - 24.8 °F 93% 29.89 in 3.0 mi Calm Calm - N/A   Mostly Cloudy
7:51 AM 27.0 °F - 25.0 °F 92% 29.95 in 10.0 mi Calm Calm - N/A   Partly Cloudy
8:51 AM 28.9 °F - 28.0 °F 96% 29.96 in 10.0 mi Calm Calm - N/A   Clear
9:51 AM 34.0 °F 31.0 °F 30.9 °F 89% 29.96 in 10.0 mi WSW 3.5 mph - N/A   Clear
10:51 AM 39.9 °F 37.8 °F 32.0 °F 73% 29.95 in 10.0 mi Variable 3.5 mph - N/A   Clear
11:51 AM 44.1 °F - 33.1 °F 65% 29.92 in 10.0 mi Calm Calm - N/A   Clear
12:51 PM 46.0 °F 41.0 °F 36.0 °F 68% 29.90 in 10.0 mi West 10.4 mph - N/A   Clear
1:51 PM 48.9 °F - 35.1 °F 59% 29.86 in 10.0 mi WNW 6.9 mph - N/A   Clear
2:51 PM 50.0 °F - 34.0 °F 54% 29.84 in 10.0 mi West 10.4 mph - N/A   Clear
3:51 PM 50.0 °F - 33.1 °F 52% 29.83 in 10.0 mi West 11.5 mph - N/A   Clear
4:51 PM 48.0 °F - 33.1 °F 56% 29.84 in 10.0 mi West 9.2 mph - N/A   Clear
5:51 PM 46.0 °F 43.1 °F 33.1 °F 61% 29.86 in 10.0 mi West 5.8 mph - N/A   Clear
6:51 PM 42.1 °F 38.4 °F 33.1 °F 70% 29.88 in 10.0 mi NW 5.8 mph - N/A   Clear
7:51 PM 37.9 °F 34.4 °F 32.0 °F 79% 29.89 in 10.0 mi WNW 4.6 mph - N/A   Clear
8:51 PM 37.0 °F - 30.9 °F 79% 29.90 in 10.0 mi Calm Calm - N/A   Clear
9:51 PM 36.0 °F - 30.9 °F 82% 29.88 in 10.0 mi Calm Calm - N/A   Clear
10:51 PM 34.0 °F 29.8 °F 30.9 °F 89% 29.87 in 10.0 mi North 4.6 mph - N/A   Clear
11:51 PM 35.1 °F 32.2 °F 32.0 °F 89% 29.85 in 10.0 mi NNW 3.5 mph - N/A   Clear